| time (UTC) | temp F | wind direction | speed knots | gust knots | rain 1hr in | rain 24hr in | rain mn in | humidity % | barometer mb |
| 20260507152805 | 60 | 304 | 1.7 | 2.6 | 0.00 | 0.00 | 0.00 | 66 | 1013.9 |
| 20260507152306 | 60 | 254 | 0.9 | 5.2 | 0.00 | 0.00 | 0.00 | 66 | 1013.9 |
| 20260507151805 | 60 | 287 | 1.7 | 2.6 | 0.00 | 0.00 | 0.00 | 67 | 1013.9 |
| 20260507151305 | 60 | 267 | 0.0 | 0.0 | 0.00 | 0.00 | 0.00 | 67 | 1013.9 |
| 20260507150805 | 60 | 270 | 0.0 | 2.6 | 0.00 | 0.00 | 0.00 | 66 | 1013.9 |
| 20260507150305 | 60 | 218 | 0.0 | 0.0 | 0.00 | 0.00 | 0.00 | 66 | 1013.8 |
| 20260507145805 | 60 | 229 | 0.0 | 0.0 | 0.00 | 0.00 | 0.00 | 65 | 1013.8 |
| 20260507145307 | 60 | 233 | 0.0 | 1.7 | 0.00 | 0.00 | 0.00 | 65 | 1013.8 |
| 20260507144305 | 60 | 275 | 0.0 | 5.2 | 0.00 | 0.00 | 0.00 | 65 | 1013.9 |
| 20260507143804 | 60 | 245 | 1.7 | 5.2 | 0.00 | 0.00 | 0.00 | 66 | 1013.9 |
| 20260507143305 | 60 | 272 | 0.0 | 2.6 | 0.00 | 0.00 | 0.00 | 66 | 1013.9 |
| 20260507142805 | 60 | 244 | 0.9 | 4.3 | 0.00 | 0.00 | 0.00 | 66 | 1014.0 |
| 20260507142307 | 60 | 284 | 0.9 | 2.6 | 0.00 | 0.00 | 0.00 | 65 | 1014.0 |
| 20260507141805 | 60 | 250 | 0.0 | 1.7 | 0.00 | 0.00 | 0.00 | 66 | 1014.1 |
| 20260507141305 | 59 | 263 | 0.9 | 1.7 | 0.00 | 0.00 | 0.00 | 67 | 1014.1 |
| 20260507140805 | 59 | 265 | 0.0 | 1.7 | 0.00 | 0.00 | 0.00 | 69 | 1014.2 |
| 20260507140305 | 59 | 247 | 0.0 | 0.0 | 0.00 | 0.00 | 0.00 | 71 | 1014.2 |
| 20260507135805 | 58 | 246 | 0.0 | 0.0 | 0.00 | 0.00 | 0.00 | 70 | 1014.2 |
| 20260507135306 | 58 | 272 | 0.0 | 0.0 | 0.00 | 0.00 | 0.00 | 72 | 1014.2 |
| 20260507134305 | 58 | 227 | 0.0 | 0.9 | 0.00 | 0.00 | 0.00 | 73 | 1014.2 |
| 20260507133305 | 58 | 261 | 0.0 | 2.6 | 0.00 | 0.00 | 0.00 | 73 | 1014.4 |
| 20260507132805 | 58 | 267 | 0.9 | 2.6 | 0.00 | 0.00 | 0.00 | 74 | 1014.4 |
| 20260507131804 | 58 | 258 | 0.9 | 2.6 | 0.00 | 0.00 | 0.00 | 74 | 1014.4 |
| 20260507131305 | 58 | 259 | 0.0 | 1.7 | 0.00 | 0.00 | 0.00 | 72 | 1014.3 |
| 20260507130805 | 58 | 272 | 1.7 | 2.6 | 0.00 | 0.00 | 0.00 | 70 | 1014.3 |
| 20260507130305 | 59 | 269 | 0.9 | 2.6 | 0.00 | 0.00 | 0.00 | 70 | 1014.4 |
| 20260507125805 | 59 | 302 | 0.0 | 0.0 | 0.00 | 0.00 | 0.00 | 70 | 1014.3 |
| 20260507125307 | 59 | 305 | 0.0 | 0.0 | 0.00 | 0.00 | 0.00 | 70 | 1014.3 |
| 20260507124805 | 59 | 276 | 0.0 | 0.0 | 0.00 | 0.00 | 0.00 | 70 | 1014.3 |
| 20260507124305 | 59 | 279 | 0.0 | 0.0 | 0.00 | 0.00 | 0.00 | 70 | 1014.3 |
| 20260507123805 | 58 | 278 | 0.0 | 0.0 | 0.00 | 0.00 | 0.00 | 71 | 1014.4 |
| 20260507123305 | 58 | 277 | 0.0 | 0.0 | 0.00 | 0.00 | 0.00 | 72 | 1014.4 |
| 20260507122805 | 58 | 279 | 0.0 | 0.0 | 0.00 | 0.00 | 0.00 | 72 | 1014.5 |
| 20260507122307 | 58 | 271 | 0.0 | 0.0 | 0.00 | 0.00 | 0.00 | 72 | 1014.5 |
| 20260507121805 | 58 | 268 | 0.0 | 0.9 | 0.00 | 0.00 | 0.00 | 71 | 1014.5 |
| 20260507121304 | 58 | 254 | 0.0 | 0.9 | 0.00 | 0.00 | 0.00 | 71 | 1014.5 |
| 20260507120805 | 58 | 293 | 0.9 | 2.6 | 0.00 | 0.00 | 0.00 | 71 | 1014.4 |
| 20260507120305 | 58 | 273 | 0.0 | 2.6 | 0.00 | 0.00 | 0.00 | 70 | 1014.4 |
| 20260507115805 | 59 | 261 | 0.0 | 1.7 | 0.00 | 0.00 | 0.00 | 70 | 1014.5 |
| 20260507115307 | 59 | 264 | 0.9 | 4.3 | 0.00 | 0.00 | 0.00 | 70 | 1014.5 |
| 20260507114805 | 59 | 272 | 0.0 | 0.0 | 0.00 | 0.00 | 0.00 | 70 | 1014.5 |
| 20260507114305 | 59 | 271 | 0.0 | 0.0 | 0.00 | 0.00 | 0.00 | 69 | 1014.5 |
| 20260507113805 | 60 | 264 | 0.9 | 4.3 | 0.00 | 0.00 | 0.00 | 69 | 1014.4 |
| 20260507113305 | 60 | 266 | 0.9 | 1.7 | 0.00 | 0.00 | 0.00 | 65 | 1014.4 |
| 20260507112307 | 60 | 268 | 0.0 | 2.6 | 0.00 | 0.00 | 0.00 | 66 | 1014.4 |
| 20260507111805 | 60 | 267 | 1.7 | 4.3 | 0.00 | 0.00 | 0.00 | 66 | 1014.5 |
| 20260507111305 | 60 | 249 | 0.0 | 2.6 | 0.00 | 0.00 | 0.00 | 65 | 1014.6 |
| 20260507110805 | 60 | 277 | 2.6 | 4.3 | 0.00 | 0.00 | 0.00 | 66 | 1014.5 |
| 20260507110305 | 60 | 252 | 1.7 | 5.2 | 0.00 | 0.00 | 0.00 | 64 | 1014.5 |
| 20260507105805 | 61 | 274 | 1.7 | 4.3 | 0.00 | 0.00 | 0.00 | 63 | 1014.6 |
| 20260507105306 | 62 | 264 | 1.7 | 4.3 | 0.00 | 0.00 | 0.00 | 60 | 1014.6 |
| 20260507104805 | 62 | 96 | 0.9 | 4.3 | 0.00 | 0.00 | 0.00 | 60 | 1014.6 |
| 20260507104305 | 62 | 261 | 0.0 | 4.3 | 0.00 | 0.00 | 0.00 | 61 | 1014.7 |
| 20260507103305 | 60 | 95 | 1.7 | 7.8 | 0.00 | 0.00 | 0.00 | 66 | 1014.7 |
| 20260507102805 | 59 | 258 | 0.9 | 5.2 | 0.00 | 0.00 | 0.00 | 71 | 1014.7 |
| 20260507101805 | 59 | 262 | 0.0 | 1.7 | 0.00 | 0.00 | 0.00 | 70 | 1014.8 |
| 20260507101304 | 60 | 263 | 1.7 | 4.3 | 0.00 | 0.00 | 0.00 | 70 | 1014.8 |
| 20260507100805 | 60 | 252 | 0.9 | 5.2 | 0.00 | 0.00 | 0.00 | 68 | 1014.8 |
| 20260507100304 | 61 | 244 | 0.9 | 5.2 | 0.00 | 0.00 | 0.00 | 69 | 1014.7 |
| 20260507095805 | 60 | 314 | 0.9 | 5.2 | 0.00 | 0.00 | 0.00 | 69 | 1014.8 |
| 20260507095306 | 60 | 297 | 0.0 | 0.0 | 0.00 | 0.00 | 0.00 | 70 | 1014.8 |
| 20260507094805 | 59 | 266 | 0.0 | 0.0 | 0.00 | 0.00 | 0.00 | 71 | 1014.8 |
| 20260507094305 | 58 | 100 | 0.0 | 0.0 | 0.00 | 0.00 | 0.00 | 70 | 1014.8 |
| 20260507093305 | 58 | 248 | 0.0 | 0.0 | 0.00 | 0.00 | 0.00 | 71 | 1014.7 |
| 20260507091805 | 57 | 189 | 0.0 | 0.0 | 0.00 | 0.00 | 0.00 | 74 | 1014.9 |
| 20260507091305 | 57 | 115 | 0.0 | 0.0 | 0.00 | 0.00 | 0.00 | 74 | 1015.0 |
| 20260507090304 | 56 | 95 | 0.0 | 0.0 | 0.00 | 0.00 | 0.00 | 75 | 1014.9 |
| 20260507085805 | 56 | 41 | 0.0 | 0.9 | 0.00 | 0.00 | 0.00 | 76 | 1015.0 |
| 20260507083805 | 54 | 65 | 0.0 | 0.0 | 0.00 | 0.00 | 0.00 | 78 | 1015.0 |
| 20260507083305 | 54 | 115 | 0.0 | 4.3 | 0.00 | 0.00 | 0.00 | 78 | 1014.9 |
| 20260507082805 | 54 | 85 | 0.9 | 2.6 | 0.00 | 0.00 | 0.00 | 78 | 1014.9 |
| 20260507082306 | 53 | 114 | 0.0 | 1.7 | 0.00 | 0.00 | 0.00 | 78 | 1014.9 |
| 20260507081805 | 53 | 94 | 0.9 | 2.6 | 0.00 | 0.00 | 0.00 | 78 | 1015.0 |
| 20260507081304 | 53 | 105 | 0.0 | 0.0 | 0.00 | 0.00 | 0.00 | 79 | 1015.0 |
| 20260507080805 | 53 | 76 | 0.0 | 1.7 | 0.00 | 0.00 | 0.00 | 79 | 1015.0 |
| 20260507075805 | 52 | 49 | 0.0 | 2.6 | 0.00 | 0.00 | 0.00 | 80 | 1015.0 |
| 20260507075307 | 51 | 87 | 0.0 | 0.0 | 0.00 | 0.00 | 0.00 | 80 | 1015.1 |
| 20260507074804 | 51 | 102 | 0.0 | 0.0 | 0.00 | 0.00 | 0.00 | 80 | 1015.0 |
| 20260507074304 | 51 | 72 | 0.0 | 0.9 | 0.00 | 0.00 | 0.00 | 81 | 1015.0 |
| 20260507073805 | 51 | 83 | 0.9 | 5.2 | 0.00 | 0.00 | 0.00 | 81 | 1015.0 |
| 20260507073305 | 51 | 84 | 1.7 | 4.3 | 0.00 | 0.00 | 0.00 | 82 | 1015.0 |
| 20260507072307 | 50 | 105 | 0.0 | 4.3 | 0.00 | 0.00 | 0.00 | 82 | 1014.9 |
| 20260507071805 | 50 | 104 | 1.7 | 2.6 | 0.00 | 0.00 | 0.00 | 82 | 1014.9 |
| 20260507071305 | 50 | 68 | 0.9 | 4.3 | 0.00 | 0.00 | 0.00 | 83 | 1014.8 |
| 20260507070804 | 49 | 98 | 0.9 | 5.2 | 0.00 | 0.00 | 0.00 | 83 | 1014.8 |
| 20260507065805 | 49 | 79 | 0.0 | 0.0 | 0.00 | 0.00 | 0.00 | 83 | 1014.8 |
| 20260507065306 | 49 | 98 | 0.0 | 0.0 | 0.00 | 0.00 | 0.00 | 83 | 1014.8 |
| 20260507064805 | 49 | 87 | 0.0 | 0.0 | 0.00 | 0.00 | 0.00 | 83 | 1014.8 |
| 20260507064304 | 49 | 98 | 0.0 | 0.0 | 0.00 | 0.00 | 0.00 | 83 | 1014.8 |
| 20260507063805 | 48 | 107 | 0.0 | 0.0 | 0.00 | 0.00 | 0.00 | 83 | 1014.8 |
| 20260507063305 | 48 | 92 | 0.0 | 0.0 | 0.00 | 0.00 | 0.00 | 83 | 1014.7 |
| 20260507062805 | 48 | 93 | 0.0 | 2.6 | 0.00 | 0.00 | 0.00 | 83 | 1014.7 |
| 20260507062306 | 48 | 72 | 0.0 | 2.6 | 0.00 | 0.00 | 0.00 | 83 | 1014.7 |
| 20260507061804 | 48 | 84 | 0.9 | 6.1 | 0.00 | 0.00 | 0.00 | 83 | 1014.6 |
| 20260507061305 | 48 | 94 | 0.0 | 2.6 | 0.00 | 0.00 | 0.00 | 83 | 1014.6 |
| 20260507060305 | 48 | 86 | 0.9 | 2.6 | 0.00 | 0.00 | 0.00 | 83 | 1014.7 |
| 20260507055805 | 48 | 51 | 0.0 | 2.6 | 0.00 | 0.00 | 0.00 | 83 | 1014.6 |
| 20260507054805 | 48 | 94 | 0.9 | 5.2 | 0.00 | 0.00 | 0.00 | 82 | 1014.5 |
| 20260507054304 | 48 | 87 | 0.0 | 2.6 | 0.00 | 0.00 | 0.00 | 82 | 1014.5 |
| 20260507053805 | 48 | 85 | 0.0 | 2.6 | 0.00 | 0.00 | 0.00 | 82 | 1014.5 |
| 20260507053304 | 48 | 76 | 0.0 | 2.6 | 0.00 | 0.00 | 0.00 | 82 | 1014.5 |
| 20260507052805 | 48 | 111 | 1.7 | 5.2 | 0.00 | 0.00 | 0.00 | 82 | 1014.4 |
| 20260507052306 | 48 | 93 | 0.0 | 5.2 | 0.00 | 0.00 | 0.00 | 82 | 1014.4 |
| 20260507051805 | 48 | 94 | 0.0 | 0.0 | 0.00 | 0.00 | 0.00 | 82 | 1014.5 |
| 20260507051305 | 48 | 94 | 0.0 | 2.6 | 0.00 | 0.00 | 0.00 | 82 | 1014.5 |
| 20260507050805 | 48 | 96 | 2.6 | 5.2 | 0.00 | 0.00 | 0.00 | 82 | 1014.4 |
| 20260507050305 | 48 | 112 | 0.0 | 2.6 | 0.00 | 0.00 | 0.00 | 82 | 1014.4 |
| 20260507045804 | 48 | 115 | 0.0 | 4.3 | 0.00 | 0.00 | 0.00 | 82 | 1014.5 |
| 20260507045306 | 48 | 95 | 0.9 | 2.6 | 0.00 | 0.00 | 0.00 | 81 | 1014.5 |
| 20260507044805 | 48 | 91 | 0.0 | 0.0 | 0.00 | 0.00 | 0.00 | 81 | 1014.4 |
| 20260507043805 | 48 | 98 | 0.9 | 5.2 | 0.00 | 0.00 | 0.00 | 81 | 1014.3 |
| 20260507043305 | 48 | 101 | 0.0 | 0.0 | 0.00 | 0.00 | 0.00 | 81 | 1014.3 |
| 20260507042805 | 48 | 108 | 0.0 | 0.0 | 0.00 | 0.00 | 0.00 | 81 | 1014.3 |
| 20260507042307 | 49 | 92 | 0.0 | 0.0 | 0.00 | 0.00 | 0.00 | 80 | 1014.3 |
| 20260507040304 | 49 | 91 | 0.0 | 2.6 | 0.00 | 0.00 | 0.00 | 80 | 1014.4 |
| 20260507034305 | 49 | 122 | 0.0 | 0.0 | 0.00 | 0.00 | 0.00 | 80 | 1014.3 |
| 20260507033805 | 49 | 111 | 0.0 | 0.0 | 0.00 | 0.00 | 0.00 | 80 | 1014.2 |
| 20260507033305 | 49 | 106 | 0.0 | 0.0 | 0.00 | 0.00 | 0.00 | 80 | 1014.3 |
| 20260507032805 | 49 | 75 | 0.0 | 0.0 | 0.00 | 0.00 | 0.00 | 80 | 1014.3 |
| 20260507032306 | 49 | 85 | 0.0 | 0.0 | 0.00 | 0.00 | 0.00 | 80 | 1014.2 |
| 20260507031805 | 49 | 87 | 0.0 | 0.0 | 0.00 | 0.00 | 0.00 | 80 | 1014.2 |
| 20260507031305 | 49 | 96 | 0.0 | 2.6 | 0.00 | 0.00 | 0.00 | 80 | 1014.2 |
| 20260507030805 | 49 | 85 | 0.9 | 4.3 | 0.00 | 0.00 | 0.00 | 79 | 1014.3 |
| 20260507030305 | 49 | 86 | 0.0 | 2.6 | 0.00 | 0.00 | 0.00 | 79 | 1014.3 |
| 20260507025805 | 49 | 103 | 0.0 | 2.6 | 0.00 | 0.00 | 0.00 | 79 | 1014.3 |
| 20260507025306 | 49 | 85 | 1.7 | 4.3 | 0.00 | 0.00 | 0.00 | 79 | 1014.2 |
| 20260507024805 | 49 | 84 | 1.7 | 5.2 | 0.00 | 0.00 | 0.00 | 79 | 1014.3 |
| 20260507023805 | 49 | 100 | 0.0 | 2.6 | 0.00 | 0.00 | 0.00 | 79 | 1014.3 |
| 20260507023305 | 49 | 109 | 0.0 | 5.2 | 0.00 | 0.00 | 0.00 | 79 | 1014.2 |
| 20260507022805 | 49 | 88 | 0.9 | 5.2 | 0.00 | 0.00 | 0.00 | 79 | 1014.2 |
| 20260507022306 | 49 | 95 | 0.9 | 6.1 | 0.00 | 0.00 | 0.00 | 79 | 1014.2 |
| 20260507021804 | 49 | 82 | 1.7 | 5.2 | 0.00 | 0.00 | 0.00 | 79 | 1014.2 |
| 20260507020304 | 49 | 87 | 4.3 | 6.1 | 0.00 | 0.00 | 0.00 | 78 | 1014.2 |
| 20260507015804 | 49 | 98 | 3.5 | 5.2 | 0.00 | 0.00 | 0.00 | 78 | 1014.1 |
| 20260507015306 | 49 | 92 | 0.9 | 6.1 | 0.00 | 0.00 | 0.00 | 78 | 1014.1 |
| 20260507014805 | 49 | 79 | 2.6 | 6.1 | 0.00 | 0.00 | 0.00 | 78 | 1014.1 |
| 20260507014305 | 49 | 86 | 0.9 | 6.1 | 0.00 | 0.00 | 0.00 | 78 | 1014.2 |
| 20260507013805 | 50 | 113 | 0.9 | 6.1 | 0.00 | 0.00 | 0.00 | 78 | 1014.1 |
| 20260507013305 | 50 | 103 | 0.9 | 5.2 | 0.00 | 0.00 | 0.00 | 78 | 1014.1 |
| 20260507012804 | 50 | 67 | 0.0 | 5.2 | 0.00 | 0.00 | 0.00 | 77 | 1014.2 |
| 20260507012306 | 50 | 88 | 1.7 | 6.1 | 0.00 | 0.00 | 0.00 | 77 | 1014.2 |
| 20260507011805 | 50 | 76 | 0.9 | 4.3 | 0.00 | 0.00 | 0.00 | 77 | 1014.2 |
| 20260507011304 | 50 | 77 | 0.9 | 5.2 | 0.00 | 0.00 | 0.00 | 77 | 1014.2 |
| 20260507010805 | 50 | 97 | 1.7 | 5.2 | 0.00 | 0.00 | 0.00 | 77 | 1014.2 |
| 20260507010304 | 50 | 93 | 2.6 | 5.2 | 0.00 | 0.00 | 0.00 | 76 | 1014.2 |
| 20260507005306 | 50 | 109 | 1.7 | 5.2 | 0.00 | 0.00 | 0.00 | 76 | 1014.1 |
| 20260507004305 | 50 | 92 | 0.9 | 5.2 | 0.00 | 0.00 | 0.00 | 75 | 1014.1 |
| 20260507003305 | 51 | 94 | 0.0 | 5.2 | 0.00 | 0.00 | 0.00 | 75 | 1014.1 |
| 20260507002805 | 51 | 97 | 0.0 | 5.2 | 0.00 | 0.00 | 0.00 | 75 | 1014.1 |
| 20260507002306 | 51 | 92 | 0.0 | 4.3 | 0.00 | 0.00 | 0.00 | 74 | 1014.1 |
| 20260507001805 | 51 | 96 | 0.9 | 2.6 | 0.00 | 0.00 | 0.00 | 74 | 1014.1 |
| 20260507001305 | 51 | 95 | 0.0 | 4.3 | 0.00 | 0.00 | 0.00 | 73 | 1014.2 |
| 20260507000306 | 51 | 101 | 2.6 | 6.1 | 0.00 | 0.00 | 0.00 | 72 | 1014.3 |
| 20260506235805 | 51 | 100 | 0.0 | 7.0 | 0.00 | 0.00 | 0.00 | 72 | 1014.3 |
| 20260506235306 | 51 | 99 | 3.5 | 8.7 | 0.00 | 0.00 | 0.00 | 72 | 1014.3 |
| 20260506234805 | 51 | 91 | 4.3 | 5.2 | 0.00 | 0.00 | 0.00 | 71 | 1014.2 |
| 20260506234305 | 51 | 110 | 1.7 | 4.3 | 0.00 | 0.00 | 0.00 | 71 | 1014.2 |
| 20260506233805 | 51 | 96 | 0.9 | 5.2 | 0.00 | 0.00 | 0.00 | 71 | 1014.2 |
| 20260506233305 | 51 | 90 | 2.6 | 5.2 | 0.00 | 0.00 | 0.00 | 70 | 1014.2 |
| 20260506232805 | 51 | 97 | 2.6 | 4.3 | 0.00 | 0.00 | 0.00 | 70 | 1014.2 |
| 20260506232306 | 51 | 124 | 0.0 | 2.6 | 0.00 | 0.00 | 0.00 | 69 | 1014.1 |
| 20260506231805 | 52 | 73 | 0.9 | 2.6 | 0.00 | 0.00 | 0.00 | 69 | 1014.2 |
| 20260506231304 | 52 | 85 | 0.0 | 0.9 | 0.00 | 0.00 | 0.00 | 69 | 1014.2 |
| 20260506230819 | 52 | 92 | 0.0 | 0.0 | 0.00 | 0.00 | 0.00 | 68 | 1014.2 |
| 20260506230305 | 52 | 93 | 0.0 | 2.6 | 0.00 | 0.00 | 0.00 | 68 | 1014.2 |
| 20260506225805 | 52 | 74 | 0.0 | 0.9 | 0.00 | 0.00 | 0.00 | 68 | 1014.2 |
| 20260506225306 | 52 | 97 | 0.0 | 0.0 | 0.00 | 0.00 | 0.00 | 68 | 1014.2 |
| 20260506223305 | 52 | 107 | 0.9 | 4.3 | 0.00 | 0.00 | 0.00 | 67 | 1014.1 |
| 20260506222805 | 52 | 99 | 2.6 | 4.3 | 0.00 | 0.00 | 0.00 | 67 | 1014.0 |
| 20260506222306 | 52 | 111 | 0.0 | 0.0 | 0.00 | 0.00 | 0.00 | 67 | 1014.0 |
| 20260506221304 | 52 | 90 | 0.9 | 2.6 | 0.00 | 0.00 | 0.00 | 65 | 1014.0 |
| 20260506220804 | 53 | 104 | 0.0 | 2.6 | 0.00 | 0.00 | 0.00 | 65 | 1013.9 |
| 20260506215804 | 53 | 83 | 0.0 | 1.7 | 0.00 | 0.00 | 0.00 | 65 | 1013.9 |
| 20260506215306 | 53 | 88 | 0.9 | 4.3 | 0.00 | 0.00 | 0.00 | 64 | 1013.9 |
| 20260506214804 | 53 | 86 | 1.7 | 4.3 | 0.00 | 0.00 | 0.00 | 64 | 1013.9 |
| 20260506214305 | 53 | 90 | 0.9 | 4.3 | 0.00 | 0.00 | 0.00 | 63 | 1013.9 |
| 20260506213804 | 53 | 85 | 0.0 | 0.0 | 0.00 | 0.00 | 0.00 | 63 | 1013.9 |
| 20260506213305 | 53 | 88 | 0.0 | 1.7 | 0.00 | 0.00 | 0.00 | 63 | 1013.8 |
| 20260506212805 | 53 | 89 | 0.0 | 0.9 | 0.00 | 0.00 | 0.00 | 63 | 1013.9 |
| 20260506212306 | 54 | 84 | 0.0 | 0.0 | 0.00 | 0.00 | 0.00 | 63 | 1013.9 |
| 20260506211805 | 54 | 84 | 0.0 | 0.0 | 0.00 | 0.00 | 0.00 | 63 | 1013.8 |
| 20260506210804 | 54 | 77 | 0.0 | 0.0 | 0.00 | 0.00 | 0.00 | 62 | 1013.7 |
| 20260506205804 | 54 | 71 | 0.0 | 0.9 | 0.00 | 0.00 | 0.00 | 60 | 1013.6 |
| 20260506205306 | 55 | 101 | 0.0 | 2.6 | 0.00 | 0.00 | 0.00 | 59 | 1013.6 |
| 20260506204804 | 55 | 101 | 0.0 | 0.0 | 0.00 | 0.00 | 0.00 | 58 | 1013.6 |
| 20260506204305 | 55 | 101 | 0.0 | 0.9 | 0.00 | 0.00 | 0.00 | 58 | 1013.6 |
| 20260506203804 | 55 | 101 | 0.0 | 0.0 | 0.00 | 0.00 | 0.00 | 58 | 1013.6 |
| 20260506203305 | 55 | 101 | 0.0 | 0.0 | 0.00 | 0.00 | 0.00 | 58 | 1013.5 |
| 20260506202804 | 55 | 101 | 0.0 | 0.0 | 0.00 | 0.00 | 0.00 | 58 | 1013.5 |
| 20260506202306 | 56 | 101 | 0.0 | 0.0 | 0.00 | 0.00 | 0.00 | 57 | 1013.5 |
| 20260506201805 | 56 | 101 | 0.9 | 2.6 | 0.00 | 0.00 | 0.00 | 57 | 1013.5 |
| 20260506201304 | 56 | 101 | 0.9 | 1.7 | 0.00 | 0.00 | 0.00 | 57 | 1013.5 |
| 20260506200805 | 56 | 101 | 0.9 | 2.6 | 0.00 | 0.00 | 0.00 | 57 | 1013.4 |
| 20260506200305 | 56 | 101 | 0.9 | 2.6 | 0.00 | 0.00 | 0.00 | 57 | 1013.3 |
| 20260506195805 | 56 | 101 | 1.7 | 2.6 | 0.00 | 0.00 | 0.00 | 57 | 1013.3 |
| 20260506194805 | 57 | 102 | 1.7 | 2.6 | 0.00 | 0.00 | 0.00 | 56 | 1013.2 |
| 20260506194305 | 57 | 105 | 1.7 | 2.6 | 0.00 | 0.00 | 0.00 | 56 | 1013.1 |
| 20260506193804 | 57 | 88 | 0.9 | 2.6 | 0.00 | 0.00 | 0.00 | 56 | 1013.1 |
| 20260506193305 | 57 | 88 | 0.9 | 2.6 | 0.00 | 0.00 | 0.00 | 55 | 1013.1 |
| 20260506192804 | 57 | 87 | 0.0 | 0.0 | 0.00 | 0.00 | 0.00 | 55 | 1013.0 |
| 20260506192306 | 57 | 60 | 0.0 | 2.6 | 0.00 | 0.00 | 0.00 | 55 | 1013.0 |
| 20260506191805 | 58 | 81 | 0.9 | 2.6 | 0.00 | 0.00 | 0.00 | 55 | 1013.1 |
| 20260506191305 | 58 | 75 | 1.7 | 2.6 | 0.00 | 0.00 | 0.00 | 55 | 1013.0 |
| 20260506190804 | 58 | 78 | 0.0 | 4.3 | 0.00 | 0.00 | 0.00 | 55 | 1013.1 |
| 20260506190305 | 58 | 93 | 0.9 | 2.6 | 0.00 | 0.00 | 0.00 | 55 | 1013.1 |
| 20260506185805 | 58 | 78 | 1.7 | 4.3 | 0.00 | 0.00 | 0.00 | 56 | 1013.1 |
| 20260506184805 | 58 | 79 | 2.6 | 6.1 | 0.00 | 0.00 | 0.00 | 56 | 1012.9 |
| 20260506184305 | 58 | 42 | 1.7 | 4.3 | 0.00 | 0.00 | 0.00 | 56 | 1012.9 |
| 20260506183804 | 58 | 55 | 1.7 | 6.1 | 0.00 | 0.00 | 0.00 | 55 | 1012.9 |
| 20260506183305 | 59 | 29 | 2.6 | 4.3 | 0.00 | 0.00 | 0.00 | 55 | 1012.9 |
| 20260506182804 | 59 | 72 | 1.7 | 2.6 | 0.00 | 0.00 | 0.00 | 55 | 1012.9 |
| 20260506182306 | 59 | 86 | 1.7 | 4.3 | 0.00 | 0.00 | 0.00 | 54 | 1012.8 |
| 20260506181804 | 59 | 98 | 1.7 | 4.3 | 0.00 | 0.00 | 0.00 | 54 | 1012.9 |
| 20260506181304 | 59 | 327 | 1.7 | 5.2 | 0.00 | 0.00 | 0.00 | 53 | 1012.8 |
| 20260506180805 | 59 | 58 | 1.7 | 4.3 | 0.00 | 0.00 | 0.00 | 53 | 1012.8 |
| 20260506175306 | 60 | 45 | 1.7 | 5.2 | 0.00 | 0.00 | 0.00 | 53 | 1012.7 |
| 20260506174304 | 60 | 65 | 0.9 | 4.3 | 0.00 | 0.00 | 0.00 | 51 | 1012.6 |
| 20260506173805 | 60 | 83 | 1.7 | 4.3 | 0.00 | 0.00 | 0.00 | 50 | 1012.6 |
| 20260506173305 | 60 | 37 | 1.7 | 4.3 | 0.00 | 0.00 | 0.00 | 50 | 1012.6 |
| 20260506172804 | 60 | 63 | 0.9 | 5.2 | 0.00 | 0.00 | 0.00 | 49 | 1012.6 |
| 20260506172307 | 61 | 48 | 1.7 | 2.6 | 0.00 | 0.00 | 0.00 | 49 | 1012.6 |
| 20260506171304 | 61 | 24 | 0.0 | 2.6 | 0.00 | 0.00 | 0.00 | 49 | 1012.6 |
| 20260506170804 | 61 | 57 | 0.9 | 2.6 | 0.00 | 0.00 | 0.00 | 50 | 1012.6 |
| 20260506170305 | 61 | 22 | 0.0 | 5.2 | 0.00 | 0.00 | 0.00 | 49 | 1012.5 |
| 20260506165804 | 62 | 47 | 1.7 | 5.2 | 0.00 | 0.00 | 0.00 | 49 | 1012.5 |
| 20260506165305 | 62 | 72 | 0.9 | 2.6 | 0.00 | 0.00 | 0.00 | 48 | 1012.5 |
| 20260506164304 | 62 | 92 | 0.0 | 2.6 | 0.00 | 0.00 | 0.00 | 47 | 1012.6 |
| 20260506163804 | 62 | 56 | 0.9 | 2.6 | 0.00 | 0.00 | 0.00 | 47 | 1012.6 |
| 20260506163304 | 61 | 23 | 0.9 | 5.2 | 0.00 | 0.00 | 0.00 | 46 | 1012.6 |
| 20260506162804 | 61 | 313 | 0.9 | 8.7 | 0.00 | 0.00 | 0.00 | 46 | 1012.5 |
| 20260506162307 | 62 | 86 | 1.7 | 4.3 | 0.00 | 0.00 | 0.00 | 47 | 1012.5 |
| 20260506161805 | 62 | 72 | 1.7 | 6.1 | 0.00 | 0.00 | 0.00 | 46 | 1012.5 |
| 20260506161305 | 62 | 73 | 1.7 | 7.8 | 0.00 | 0.00 | 0.00 | 46 | 1012.6 |
| 20260506160804 | 62 | 13 | 1.7 | 5.2 | 0.00 | 0.00 | 0.00 | 45 | 1012.7 |
| 20260506160304 | 62 | 78 | 0.9 | 4.3 | 0.00 | 0.00 | 0.00 | 47 | 1012.6 |
| 20260506155804 | 62 | 95 | 1.7 | 4.3 | 0.00 | 0.00 | 0.00 | 47 | 1012.7 |
| 20260506154805 | 61 | 63 | 1.7 | 5.2 | 0.00 | 0.00 | 0.00 | 45 | 1012.8 |
| 20260506154304 | 61 | 89 | 1.7 | 5.2 | 0.00 | 0.00 | 0.00 | 47 | 1012.8 |
| 20260506153304 | 61 | 107 | 0.9 | 6.1 | 0.00 | 0.00 | 0.00 | 46 | 1012.8 |